Temperature
-12 -12 -12 -11 -11 -11 -10 -10 -9 -8 -7 -6 -5 -5 -5 -5 -5 -4 -3 -1 2 3 5 6 7 8 10 11 12 12 13 13 13 14 14 15 15 15
-11 -11 -11 -10 -10 -10 -9 -9 -9 -8 -8 -7 -6 -6 -6 -6 -5 -4 -3 -1 1 3 4 5 6 8 9 10 12 12 12 12 13 13 14 14 14 14
-11 -11 -10 -10 -10 -9 -9 -9 -9 -9 -8 -8 -7 -7 -6 -6 -5 -4 -3 -1 1 2 4 5 6 7 8 10 11 11 12 12 12 12 13 13 14 14
-11 -11 -11 -10 -10 -10 -9 -9 -9 -9 -9 -9 -8 -7 -7 -6 -5 -4 -3 -2 0 2 3 4 5 6 7 9 10 11 11 11 12 12 12 13 13 13
-12 -12 -11 -11 -11 -10 -10 -10 -10 -9 -9 -9 -8 -8 -7 -6 -5 -4 -3 -2 -0 2 3 4 5 6 7 8 9 10 11 12 12 12 12 12 12 13
-12 -12 -12 -12 -11 -11 -10 -10 -10 -10 -10 -9 -9 -8 -8 -7 -5 -4 -2 -1 -0 1 2 4 4 5 6 7 9 10 11 12 12 12 12 12 12 12
-12 -12 -12 -12 -12 -11 -11 -11 -11 -11 -10 -10 -9 -9 -8 -8 -7 -5 -3 -1 -0 1 2 3 4 5 6 7 8 9 10 11 12 12 12 12 12 12
-13 -13 -13 -12 -12 -11 -11 -11 -11 -11 -11 -10 -10 -10 -10 -9 -8 -6 -4 -2 -0 1 2 3 4 5 6 7 8 9 10 11 12 12 12 12 12 12
-13 -13 -13 -12 -12 -11 -11 -12 -12 -11 -11 -11 -11 -11 -10 -10 -9 -7 -5 -3 -1 1 2 3 4 5 5 6 7 8 9 10 11 12 12 13 12 12
-13 -13 -13 -12 -12 -11 -12 -12 -12 -12 -11 -11 -11 -11 -11 -10 -9 -8 -6 -3 -1 0 1 3 4 4 5 6 7 8 9 10 11 12 12 12 12 12
-12 -13 -13 -12 -12 -12 -12 -12 -12 -12 -11 -11 -11 -11 -10 -9 -9 -7 -5 -4 -2 -0 1 2 3 4 5 6 6 7 8 9 10 11 11 12 12 11
-12 -13 -13 -12 -13 -12 -12 -13 -12 -12 -11 -11 -11 -11 -10 -9 -8 -7 -6 -4 -3 -1 0 2 3 4 5 6 6 7 8 9 10 10 11 11 11 11
-13 -13 -13 -13 -13 -13 -13 -13 -13 -12 -12 -12 -12 -11 -11 -10 -8 -7 -5 -4 -3 -2 -0 1 2 4 5 6 6 7 7 8 9 10 10 10 11 11
-13 -13 -13 -13 -13 -14 -13 -13 -13 -12 -12 -12 -12 -12 -11 -10 -8 -7 -5 -4 -3 -2 -1 0 2 3 4 5 6 6 7 8 9 9 10 10 10 10
-13 -13 -13 -13 -13 -14 -14 -13 -13 -13 -13 -13 -13 -13 -12 -10 -8 -7 -5 -4 -3 -2 -1 -0 1 2 3 4 5 6 6 7 8 9 9 10 10 10
-12 -12 -13 -13 -13 -13 -13 -13 -13 -14 -13 -13 -13 -13 -12 -10 -9 -7 -5 -4 -3 -2 -1 -0 1 1 2 3 5 6 6 7 8 8 9 9 9 9
-12 -12 -12 -12 -13 -13 -13 -13 -13 -13 -13 -13 -13 -12 -12 -10 -9 -7 -6 -5 -4 -3 -2 -1 0 1 2 3 4 5 5 6 7 8 8 8 8 9
-11 -12 -12 -12 -13 -13 -13 -13 -13 -13 -13 -13 -13 -12 -12 -11 -10 -8 -6 -5 -4 -3 -2 -1 -0 0 1 2 3 4 5 5 6 7 7 7 7 7
-11 -12 -12 -12 -12 -12 -12 -13 -13 -13 -13 -13 -13 -12 -12 -11 -10 -9 -8 -6 -4 -3 -2 -2 -1 -0 1 2 2 3 4 4 5 5 5 6 5 4
-11 -12 -12 -12 -12 -12 -12 -12 -12 -12 -13 -13 -13 -12 -12 -12 -11 -10 -9 -7 -6 -4 -3 -2 -1 -0 1 1 1 1 2 3 4 4 3 3 3 2
-11 -11 -11 -11 -11 -11 -11 -11 -12 -12 -12 -12 -12 -12 -12 -12 -11 -11 -10 -9 -7 -5 -4 -3 -1 -1 -0 0 1 0 1 1 2 3 3 2 1 0
-11 -11 -11 -11 -11 -11 -11 -11 -11 -11 -12 -12 -12 -12 -12 -12 -12 -11 -11 -10 -9 -7 -6 -4 -3 -2 -1 -0 0 -0 -0 -0 0 1 2 3 2 1
-11 -10 -10 -10 -10 -10 -10 -10 -10 -11 -11 -11 -12 -12 -12 -12 -12 -12 -12 -11 -10 -9 -7 -6 -5 -3 -2 -2 -1 -1 -1 -1 -1 -1 -0 0 2 2
Wind_Speed
12 13 11 11 11 12 12 12 12 13 13 13 11 10 10 11 14 15 15 18 19 20 20 19 15 13 13 10 9 15 20 22 23 24 27 30 32 33
10 11 11 9 9 9 9 9 9 11 12 12 13 14 14 12 16 16 16 19 20 19 19 18 15 12 11 10 8 13 16 18 20 22 25 27 29 30
13 12 12 11 10 9 8 8 8 9 12 14 13 14 16 15 14 13 13 13 12 16 17 17 14 11 9 9 8 11 17 19 20 21 22 23 25 27
14 14 14 13 14 11 10 10 10 10 12 15 14 13 15 15 15 14 12 10 10 13 16 16 14 12 9 9 9 10 17 22 22 22 22 22 23 25
13 14 14 15 15 14 13 12 11 11 11 12 13 12 12 12 14 12 12 10 10 10 13 14 13 12 9 10 10 9 14 21 24 25 24 23 22 23
13 13 14 14 15 17 13 13 13 13 12 11 11 11 11 12 10 8 8 6 7 7 9 9 9 10 10 10 10 10 12 18 24 26 26 24 23 24
12 13 14 17 19 17 13 13 13 12 12 11 10 10 10 11 9 8 9 9 7 4 5 6 6 7 7 8 9 9 11 16 20 24 26 26 25 24
12 13 14 15 20 21 17 17 15 13 12 11 10 10 11 11 10 10 9 6 3 2 3 4 5 6 5 5 6 7 10 13 18 22 25 27 27 27
13 13 13 15 20 14 12 15 15 16 14 11 11 11 12 11 12 11 10 8 7 6 4 3 4 6 5 4 5 6 8 11 15 19 22 25 27 28
13 14 15 16 17 16 12 12 13 11 11 10 10 10 10 11 11 11 11 10 10 8 5 2 3 4 3 3 4 6 8 10 13 16 20 23 26 28
12 13 15 15 20 22 15 14 14 11 11 14 13 12 13 13 11 8 7 6 4 3 2 2 1 2 2 2 2 5 6 9 11 15 19 23 25 26
11 12 16 19 21 21 15 14 15 13 12 12 11 10 9 9 9 6 6 5 4 3 5 4 2 1 2 1 1 2 4 6 10 14 18 22 26 19
10 10 12 21 21 21 18 14 17 16 12 11 10 9 8 7 6 6 5 5 5 4 5 6 3 2 1 2 1 1 3 4 5 8 15 22 26 20
9 10 12 20 19 19 17 20 22 17 11 10 10 9 9 9 8 8 7 7 8 10 10 7 4 4 2 2 2 1 1 3 4 6 8 17 20 22
8 12 15 17 17 14 19 21 18 13 12 11 11 10 10 10 9 8 6 5 7 8 8 7 5 5 3 2 1 1 2 2 2 5 7 10 12 17
8 10 13 14 13 14 15 14 12 13 12 11 11 11 10 10 9 8 7 6 3 2 3 5 5 4 2 2 1 1 2 2 3 6 7 8 9 12
9 7 7 9 10 10 11 11 12 12 13 12 12 12 11 11 10 9 7 6 4 3 4 4 3 2 5 5 1 2 4 5 6 8 10 11 9 11
9 7 8 8 9 10 10 11 11 12 13 13 12 12 12 12 11 10 9 7 6 5 5 4 3 1 2 6 10 2 5 6 8 9 11 14 11 9
8 8 8 8 8 8 9 9 10 12 12 12 12 13 12 12 11 11 10 9 7 6 6 5 4 2 2 3 6 12 5 8 10 10 9 12 13 11
8 8 8 8 8 8 8 8 9 10 11 11 12 12 12 12 12 11 11 11 8 7 6 6 6 5 2 3 3 6 13 6 11 15 14 15 14 20
9 9 9 8 8 7 7 7 7 8 10 10 11 12 12 12 12 12 11 14 11 8 8 7 6 6 2 3 6 5 9 17 12 12 18 19 17 14
10 10 9 9 8 7 7 6 6 7 8 8 10 10 11 11 12 12 11 10 9 9 8 6 6 4 2 5 9 10 11 13 18 24 19 12 10 11
10 10 10 10 9 8 7 6 6 5 5 6 8 9 10 10 10 11 11 10 9 10 8 7 7 7 7 8 11 12 15 14 12 14 14 22 28 33
Wind_Direction
296 288 280 276 272 268 266 266 276 290 298 305 307 307 307 301 297 294 289 286 289 291 292 294 297 304 310 293 247 221 207 194 188 186 188 192 193 193
317 305 297 289 287 285 284 279 276 283 292 298 305 305 307 300 296 291 283 281 279 278 279 282 285 293 305 301 253 207 197 187 182 181 186 190 191 190
339 335 329 321 319 311 310 312 309 304 298 300 303 306 306 303 300 292 280 271 267 265 267 269 272 280 295 296 272 212 191 189 187 184 187 189 189 187
338 338 337 334 331 327 326 324 320 314 306 304 305 308 309 310 304 292 277 264 258 257 257 257 261 267 282 287 272 223 190 185 186 186 187 189 189 184
334 334 333 331 332 332 331 330 324 318 308 301 304 309 312 318 313 294 278 261 254 249 248 247 249 255 266 274 266 234 197 184 182 184 185 185 183 179
332 331 330 326 326 327 330 332 327 320 313 306 305 311 316 325 322 313 301 281 255 239 234 230 235 245 247 261 257 233 202 187 184 181 179 177 174 174
333 330 327 327 326 327 329 332 328 322 317 313 309 314 320 329 331 326 318 306 264 233 232 219 216 225 225 242 246 223 199 190 186 182 177 173 170 171
334 332 328 328 326 327 324 329 328 322 322 317 311 312 316 321 323 323 323 319 279 346 275 229 209 213 213 226 222 203 190 188 187 183 180 175 172 172
338 337 334 330 331 322 325 331 325 320 322 319 309 309 311 317 319 318 321 319 304 318 317 246 205 208 201 213 205 193 185 182 183 180 179 176 173 172
341 338 334 331 329 343 340 332 324 321 322 316 310 311 311 314 314 309 306 303 286 266 250 269 199 198 184 184 195 197 186 178 178 178 177 174 171 169
343 340 337 338 342 351 348 338 333 336 333 326 323 319 317 317 322 320 315 310 295 284 246 275 267 189 165 166 184 199 189 176 175 177 175 172 167 164
344 343 341 349 353 355 354 346 342 344 337 331 329 327 326 323 328 322 307 301 299 306 357 340 322 207 145 102 99 177 182 180 176 176 172 169 165 167
346 345 346 353 357 357 359 355 351 350 340 335 333 335 336 332 329 319 294 276 279 290 353 350 330 336 97 107 101 189 173 162 166 172 172 168 168 168
348 347 348 354 357 358 360 0 358 355 348 344 344 346 343 339 333 321 299 269 257 265 293 314 310 336 5 95 104 99 126 141 152 157 165 167 166 157
344 344 348 352 354 355 358 1 360 356 353 350 348 346 341 336 333 331 321 289 258 253 266 271 275 307 333 23 51 76 73 55 118 143 152 161 159 152
339 337 342 347 353 356 358 359 358 357 356 350 347 346 347 349 353 352 347 341 316 293 274 279 273 278 324 344 13 63 104 117 103 111 121 125 135 143
339 334 341 346 352 356 357 359 358 358 356 353 355 356 357 359 1 0 0 360 12 360 346 339 341 73 64 26 77 91 117 111 109 112 118 112 103 125
348 342 343 343 345 348 350 353 357 358 356 355 359 1 2 2 3 4 9 12 14 10 2 349 340 1 59 48 23 75 103 108 108 105 119 121 106 95
355 349 343 339 337 338 342 347 352 355 355 357 1 3 3 4 7 8 10 12 12 11 8 4 2 356 111 86 17 18 84 117 116 107 105 117 116 111
353 348 344 338 333 332 334 340 344 351 358 359 2 3 4 6 9 9 11 11 10 10 16 21 19 12 40 102 89 35 30 90 126 119 110 103 100 105
347 344 341 338 334 329 327 329 335 344 355 357 3 4 4 7 9 9 10 11 15 15 18 15 358 354 11 91 101 76 50 52 78 121 129 124 121 119
340 338 337 335 334 330 326 324 327 337 350 358 2 4 5 7 9 9 10 11 13 13 14 16 12 23 52 110 114 108 95 82 67 65 66 96 131 141
335 333 331 332 333 331 326 320 316 324 340 351 358 2 4 8 9 11 12 14 16 18 21 33 46 57 74 99 110 111 107 103 95 83 70 82 96 110
Height
1424 1419 1415 1411 1408 1405 1402 1399 1397 1391 1385 1381 1379 1377 1375 1373 1370 1369 1368 1368 1370 1373 1376 1379 1383 1386 1391 1395 1400 1404 1410 1422 1432 1442 1452 1461 1470 1479
1424 1418 1414 1409 1406 1402 1399 1396 1393 1390 1383 1379 1376 1373 1370 1368 1365 1363 1363 1363 1364 1367 1371 1374 1378 1381 1386 1390 1394 1398 1403 1412 1423 1434 1444 1455 1464 1473
1425 1419 1414 1409 1405 1401 1398 1394 1390 1387 1381 1376 1372 1368 1365 1363 1360 1358 1358 1358 1360 1362 1366 1369 1373 1377 1381 1386 1390 1395 1400 1407 1417 1427 1438 1448 1458 1467
1424 1418 1414 1409 1405 1400 1396 1392 1388 1384 1380 1373 1368 1364 1361 1358 1354 1353 1353 1354 1355 1358 1361 1364 1369 1373 1377 1381 1386 1392 1397 1405 1413 1422 1432 1442 1452 1461
1422 1417 1412 1408 1403 1399 1395 1390 1386 1381 1377 1371 1366 1361 1357 1354 1351 1350 1350 1350 1351 1353 1356 1360 1364 1369 1373 1378 1382 1388 1394 1400 1408 1417 1427 1436 1446 1454
1421 1416 1411 1406 1402 1397 1393 1388 1383 1378 1374 1369 1364 1359 1355 1351 1349 1347 1347 1347 1348 1350 1352 1356 1360 1365 1370 1375 1379 1384 1390 1397 1405 1413 1422 1431 1440 1449
1419 1414 1409 1405 1400 1396 1391 1386 1381 1376 1371 1366 1362 1358 1354 1350 1347 1344 1344 1343 1345 1346 1349 1353 1357 1361 1366 1370 1375 1380 1386 1394 1402 1409 1418 1426 1435 1444
1418 1412 1407 1402 1397 1392 1388 1383 1378 1373 1368 1364 1359 1356 1352 1349 1345 1343 1342 1341 1343 1345 1346 1349 1353 1358 1362 1367 1371 1376 1383 1390 1398 1406 1414 1422 1430 1439
1417 1411 1406 1400 1395 1389 1384 1379 1374 1370 1366 1361 1356 1353 1349 1347 1344 1342 1340 1339 1339 1341 1344 1346 1350 1355 1359 1363 1368 1373 1380 1387 1394 1401 1410 1418 1426 1435
1416 1410 1405 1399 1393 1388 1382 1376 1371 1366 1361 1356 1353 1349 1346 1343 1342 1341 1339 1338 1338 1339 1342 1345 1348 1352 1356 1360 1365 1371 1377 1384 1390 1398 1406 1414 1422 1432
1415 1409 1404 1398 1392 1386 1380 1374 1369 1363 1357 1352 1348 1344 1342 1340 1339 1338 1338 1338 1339 1340 1341 1343 1346 1351 1354 1358 1363 1368 1373 1380 1387 1395 1402 1410 1419 1429
1413 1408 1403 1397 1391 1385 1379 1373 1367 1360 1354 1349 1345 1341 1338 1336 1336 1335 1336 1337 1337 1339 1340 1342 1345 1349 1353 1356 1361 1366 1371 1377 1385 1392 1399 1407 1416 1426
1412 1407 1402 1397 1390 1385 1379 1373 1367 1360 1353 1348 1343 1340 1337 1335 1333 1333 1334 1335 1337 1338 1339 1342 1345 1348 1351 1355 1360 1365 1370 1376 1382 1389 1396 1404 1413 1421
1412 1407 1402 1397 1391 1385 1379 1373 1366 1359 1353 1348 1343 1339 1335 1333 1331 1331 1332 1333 1335 1337 1339 1342 1344 1348 1351 1354 1359 1363 1368 1373 1380 1386 1393 1402 1410 1418
1412 1407 1402 1397 1391 1385 1380 1374 1366 1360 1354 1348 1344 1339 1336 1332 1331 1330 1331 1332 1335 1337 1339 1341 1344 1347 1350 1354 1358 1362 1366 1371 1377 1384 1391 1398 1406 1414
1412 1407 1403 1398 1393 1387 1382 1375 1369 1364 1358 1351 1346 1341 1337 1333 1331 1330 1331 1332 1335 1337 1340 1342 1345 1348 1351 1354 1358 1362 1366 1370 1375 1381 1388 1396 1403 1411
1412 1408 1403 1399 1394 1389 1384 1378 1373 1367 1360 1355 1349 1344 1339 1335 1333 1332 1332 1334 1336 1338 1341 1343 1346 1348 1351 1354 1358 1361 1365 1369 1373 1379 1385 1392 1400 1408
1413 1409 1404 1400 1396 1391 1386 1382 1376 1371 1365 1359 1353 1348 1343 1339 1336 1335 1334 1335 1337 1339 1341 1343 1346 1349 1352 1356 1359 1361 1364 1368 1373 1378 1384 1389 1397 1405
1414 1410 1406 1402 1397 1393 1389 1385 1380 1375 1369 1364 1358 1353 1348 1344 1341 1339 1338 1337 1338 1340 1342 1344 1346 1349 1352 1355 1359 1362 1365 1369 1374 1379 1384 1389 1396 1405
1416 1412 1408 1403 1399 1395 1391 1387 1383 1379 1374 1369 1364 1359 1354 1350 1346 1343 1341 1340 1340 1341 1343 1345 1347 1350 1353 1356 1359 1363 1367 1371 1375 1379 1385 1390 1398 1408
1416 1413 1409 1405 1401 1397 1393 1389 1386 1382 1378 1373 1369 1364 1360 1355 1352 1348 1346 1344 1343 1343 1344 1346 1348 1351 1354 1357 1360 1364 1370 1374 1377 1379 1385 1392 1400 1409
1417 1414 1410 1406 1402 1398 1395 1391 1388 1385 1381 1378 1374 1369 1365 1361 1357 1354 1351 1349 1347 1346 1346 1347 1349 1352 1355 1358 1361 1365 1371 1376 1381 1384 1390 1395 1398 1408
1418 1414 1411 1407 1403 1400 1396 1393 1389 1387 1384 1381 1378 1374 1371 1367 1363 1360 1357 1354 1352 1350 1349 1350 1351 1354 1356 1359 1362 1366 1372 1378 1383 1388 1394 1399 1403 1409